User: anonymous   Login
Location: Ferma
(41.9500°N, 44.5167°E)
Time: 07:43:55
(UTC+00:00)
Language:

Radarsat Rocket - Orbit

View from above orbital plane
View from above orbital plane
View from above satellite
View from above satellite

Ground track
Ground track

The orbit data is extracted from the following two-line orbital elements,

1 23711U 95059B   22023.91654948 -.00000050  00000-0 -14182-4 0  9994
2 23711 100.6224  38.6605 0368344 123.8647 301.0502 13.12732243256279
Epoch (UTC): 23 January 2022 21:59:49
Eccentricity: 0.0368344
inclination: 100.6224°
perigee height: 933 km
apogee height: 1492 km
right ascension of ascending node: 38.6605°
argument of perigee: 123.8647°
revolutions per day: 13.12732243
mean anomaly at epoch: 301.0502°
orbit number at epoch: 25627

The dashed part of the orbit path shows where the satellite is in the earth's shadow,  

DLR